Location: Trebic
(49.2170°N, 15.8830°E)
Time: 12:21:24
(UTC+02:00)

Transit 2A Rocket - Pass Details

Date: 01 August 2019
Orbit: 590 x 913 km, 66.7° (Epoch: 21 August)

Event Time Altitude Azimuth Distance (km) Brightness Sun altitude
Rises 06:29:38 0° 315° (NW) 3,300 8.0 8.4°
Reaches altitude 10° 06:33:58 10° 347° (NNW) 2,278 7.6 9.0°
Maximum altitude 06:35:47 12° 8° (N) 2,124 7.7 9.3°
Drops below altitude 10° 06:37:33 10° 29° (NNE) 2,201 8.2 9.6°
Sets 06:41:31 0° 62° (ENE) 3,032 10.0 10.2°
